Location: Arbon
(43.0005°N, 0.7472°E)
Time: 07:51:57
(UTC+00:00)

Cosmos 2058 - Pass Details

Date: 22 April 2026
Orbit: 523 x 538 km, 82.5° (Epoch: 15 May)

Event Time Altitude Azimuth Distance (km) Brightness Sun altitude
Rises 21:22:52 0° 354° (N) 2,676 7.2 -24.5°
Reaches altitude 10° 21:25:03 10° 358° (N) 1,779 6.1 -24.8°
Enters shadow 21:27:45 41° 15° (NNE) 777 3.7 -25.1°
